Date String (YYYY-MM-DD hh:mm:ss) UTC,Instrument flags,absolute air pressure of the measurement (hPa),sample flow rate (lpm),inlet stack bypass flow (lpm),air temperature of the measurement (°C),ambient temperature measured by the external sensor (°C),aerosol sample conditioner tube jacket temperature (°C),OPC LED temperature (°C),internal box temperature (°C),relative humidity of the measurement (%),span deviation,mass concentration of particles derived from Lorenz-Mie calculation of OPC scattering (μg/m³),mass concentration of particles derived from Lorenz-Mie calculation of OPC scattering (μg/m³),mass concentration of particles derived from Lorenz-Mie calculation of OPC scattering (μg/m³)
DateTimeUTC,F1_M11,P_M11,Q1_M11,Q2_M11,T1_M11,T2_M11,T3_M11,T4_M11,T5_M11,U1_M11,ZSPAN_M11,X2_M11,X0_M11,X1_M11
2023-07-22 15:00:00,SystemResetWarning,0836.1,5.01,000.00,029.3,025.4,000.0,037.6,030.6,34.2,0000.0,0004.65,0008.92,0004.25
2023-07-22 15:01:00,SystemResetWarning,0836.1,4.97,000.00,029.2,025.6,000.0,037.6,030.5,35.1,0000.0,0004.67,0008.94,0004.24
2023-07-22 15:02:00,SystemResetWarning,0836.1,5.03,000.00,029.3,026.0,000.0,037.7,030.6,35.6,0000.0,0004.63,0008.85,0004.23
2023-07-22 15:03:00,SystemResetWarning,0836.1,5.01,000.00,029.5,026.4,000.0,037.7,030.8,34.6,0000.0,0004.60,0008.69,0004.22
2023-07-22 15:04:00,SystemResetWarning,0836.1,4.97,000.00,029.8,026.7,000.0,037.7,030.9,33.5,0000.0,0004.59,0008.70,0004.22
2023-07-22 15:05:00,SystemResetWarning,0836.1,5.01,000.00,030.0,027.1,000.0,037.8,031.0,33.0,0000.0,0004.62,0008.75,0004.24
2023-07-22 15:06:00,SystemResetWarning,0836.1,5.01,000.00,030.1,027.3,000.0,037.8,031.0,33.0,0000.0,0004.66,0009.34,0004.28
2023-07-22 15:07:00,SystemResetWarning,0836.1,5.00,000.00,030.1,027.5,000.0,037.9,031.1,32.6,0000.0,0004.69,0009.38,0004.30
2023-07-22 15:08:00,SystemResetWarning,0836.1,4.99,000.00,030.2,027.7,000.0,038.0,031.1,33.1,0000.0,0004.73,0009.14,0004.33
2023-07-22 15:09:00,SystemResetWarning,0836.2,5.00,000.00,030.3,027.9,000.0,038.1,031.2,32.3,0000.0,0004.75,0008.65,0004.37
2023-07-22 15:10:00,SystemResetWarning,0836.2,5.00,000.00,030.3,028.1,000.0,038.1,031.2,32.0,0000.0,0004.78,0008.73,0004.39
2023-07-22 15:11:00,SystemResetWarning,0836.2,4.99,000.00,030.3,028.1,000.0,038.2,031.3,31.7,0000.0,0004.79,0008.54,0004.39
2023-07-22 15:12:00,SystemResetWarning,0836.2,5.00,000.00,030.3,027.0,000.0,038.1,031.1,31.3,0000.0,0004.79,0008.57,0004.38
2023-07-22 15:13:00,SystemResetWarning,0836.2,5.01,000.00,030.3,025.7,000.0,038.1,030.9,31.3,0000.0,0004.75,0008.58,0004.37
2023-07-22 15:14:00,SystemResetWarning,0836.1,5.00,000.00,030.2,025.4,000.0,038.0,030.8,31.7,0000.0,0004.77,0008.63,0004.37
2023-07-22 15:15:00,SystemResetWarning,0836.1,5.01,000.00,030.1,025.7,000.0,038.1,030.6,31.5,0000.0,0004.79,0009.00,0004.37
2023-07-22 15:16:00,SystemResetWarning,0836.1,4.99,000.00,030.0,026.0,000.0,038.1,030.7,31.4,0000.0,0004.75,0009.26,0004.36
2023-07-22 15:17:00,SystemResetWarning,0836.1,5.01,000.00,030.0,026.4,000.0,038.2,030.8,32.0,0000.0,0004.72,0008.66,0004.34
2023-07-22 15:18:00,SystemResetWarning,0836.2,5.00,000.00,030.0,026.8,000.0,038.2,030.8,31.9,0000.0,0004.72,0008.46,0004.34
2023-07-22 15:19:00,SystemResetWarning,0836.2,5.00,000.00,030.0,027.1,000.0,038.2,030.9,32.7,0000.0,0004.69,0008.38,0004.33
2023-07-22 15:20:00,SystemResetWarning,0836.2,4.99,000.00,030.0,027.4,000.0,038.2,031.0,32.5,0000.0,0004.68,0008.39,0004.32
2023-07-22 15:21:00,SystemResetWarning,0836.2,5.00,000.00,030.0,027.6,000.0,038.2,031.0,33.8,0000.0,0004.67,0008.29,0004.31
2023-07-22 15:22:00,SystemResetWarning,0836.1,5.00,000.00,030.0,027.8,000.0,038.3,031.1,33.9,0000.0,0004.66,0008.71,0004.32
2023-07-22 15:23:00,SystemResetWarning,0836.1,5.00,000.00,030.0,027.9,000.0,038.3,031.2,32.6,0000.0,0004.65,0008.71,0004.32
2023-07-22 15:24:00,SystemResetWarning,0836.1,5.00,000.00,030.0,027.9,000.0,038.2,031.2,32.6,0000.0,0004.65,0008.68,0004.33
2023-07-22 15:25:00,SystemResetWarning,0836.1,4.99,000.00,030.0,026.5,000.0,038.1,031.0,33.0,0000.0,0004.67,0008.75,0004.32
2023-07-22 15:26:00,SystemResetWarning,0836.1,5.02,000.00,030.0,025.4,000.0,038.0,030.8,33.2,0000.0,0004.65,0008.49,0004.32
2023-07-22 15:27:00,SystemResetWarning,0836.1,5.00,000.00,029.9,025.3,000.0,038.0,030.7,32.9,0000.0,0004.63,0007.92,0004.31
2023-07-22 15:28:00,SystemResetWarning,0836.1,4.99,000.00,029.8,025.6,000.0,038.0,030.6,33.4,0000.0,0004.62,0008.54,0004.31
2023-07-22 15:29:00,SystemResetWarning,0836.1,5.00,000.00,029.7,026.0,000.0,038.0,030.6,33.6,0000.0,0004.61,0008.50,0004.31
2023-07-22 15:30:00,SystemResetWarning,0836.1,5.00,000.00,029.7,026.4,000.0,038.1,030.7,33.6,0000.0,0004.61,0008.80,0004.31
2023-07-22 15:31:00,SystemResetWarning,0836.1,5.01,000.00,029.7,026.7,000.0,038.1,030.8,33.2,0000.0,0004.62,0009.02,0004.31
2023-07-22 15:32:00,SystemResetWarning,0836.1,5.00,000.00,029.7,027.1,000.0,038.1,030.8,33.2,0000.0,0004.63,0009.08,0004.32
2023-07-22 15:33:00,SystemResetWarning,0836.1,4.99,000.00,029.7,027.3,000.0,038.1,030.9,34.1,0000.0,0004.60,0009.30,0004.32
2023-07-22 15:34:00,SystemResetWarning,0836.1,5.01,000.00,029.7,027.6,000.0,038.1,031.0,34.4,0000.0,0004.61,0009.07,0004.32
2023-07-22 15:35:00,SystemResetWarning,0836.0,5.00,000.00,029.8,027.7,000.0,038.1,031.0,33.1,0000.0,0004.60,0009.37,0004.33
2023-07-22 15:36:00,SystemResetWarning,0836.1,4.99,000.00,029.8,027.9,000.0,038.1,031.1,33.1,0000.0,0004.61,0009.73,0004.34
2023-07-22 15:37:00,SystemResetWarning,0836.1,5.00,000.00,029.8,028.0,000.0,038.1,031.1,32.8,0000.0,0004.62,0010.27,0004.36
2023-07-22 15:38:00,SystemResetWarning,0836.1,5.01,000.00,029.9,027.1,000.0,038.0,031.1,32.9,0000.0,0004.67,0010.36,0004.38
2023-07-22 15:39:00,SystemResetWarning,0836.1,5.00,000.00,029.8,025.7,000.0,037.9,030.8,33.5,0000.0,0004.72,0009.95,0004.42
2023-07-22 15:40:00,SystemResetWarning,0836.1,4.99,000.00,029.7,025.3,000.0,037.8,030.7,35.0,0000.0,0004.75,0009.77,0004.44
2023-07-22 15:41:00,SystemResetWarning,0836.1,5.03,000.00,029.7,025.5,000.0,037.8,030.6,34.4,0000.0,0004.80,0009.70,0004.47
2023-07-22 15:42:00,SystemResetWarning,0836.1,4.97,000.00,029.8,025.9,000.0,037.9,030.6,33.2,0000.0,0004.84,0009.32,0004.50
2023-07-22 15:43:00,SystemResetWarning,0836.1,5.02,000.00,029.8,026.3,000.0,037.9,030.7,32.8,0000.0,0004.86,0009.33,0004.53
2023-07-22 15:44:00,SystemResetWarning,0836.1,5.00,000.00,029.8,026.7,000.0,037.9,030.8,33.1,0000.0,0004.91,0008.91,0004.57
2023-07-22 15:45:00,SystemResetWarning,0836.1,4.99,000.00,029.8,027.0,000.0,038.0,030.8,33.6,0000.0,0004.92,0008.82,0004.59
2023-07-22 15:46:00,SystemResetWarning,0836.1,5.00,000.00,029.8,027.3,000.0,038.0,030.9,33.3,0000.0,0004.95,0008.64,0004.61
2023-07-22 15:47:00,SystemResetWarning,0836.1,5.00,000.00,029.9,027.5,000.0,038.0,030.9,33.8,0000.0,0004.96,0008.12,0004.62
2023-07-22 15:48:00,SystemResetWarning,0836.1,5.01,000.00,029.9,027.7,000.0,038.1,031.0,33.5,0000.0,0004.97,0007.71,0004.64
2023-07-22 15:49:00,SystemResetWarning,0836.1,5.01,000.00,029.9,027.9,000.0,038.1,031.1,32.4,0000.0,0005.01,0007.95,0004.65
2023-07-22 15:50:00,SystemResetWarning,0836.1,5.00,000.00,029.9,027.4,000.0,038.0,031.0,32.0,0000.0,0005.02,0008.74,0004.66
2023-07-22 15:51:00,SystemResetWarning,0836.1,4.99,000.00,029.9,025.9,000.0,037.9,030.8,31.5,0000.0,0005.03,0009.00,0004.66
2023-07-22 15:52:00,SystemResetWarning,0836.1,5.00,000.00,029.8,025.3,000.0,037.8,030.6,32.7,0000.0,0005.03,0009.00,0004.67
2023-07-22 15:53:00,SystemResetWarning,0836.1,5.01,000.00,029.7,025.4,000.0,037.9,030.5,31.9,0000.0,0005.02,0008.91,0004.68
2023-07-22 15:54:00,SystemResetWarning,0836.1,5.00,000.00,029.6,025.8,000.0,037.9,030.5,32.2,0000.0,0005.03,0009.25,0004.68
2023-07-22 15:55:00,SystemResetWarning,0836.1,5.00,000.00,029.6,026.2,000.0,037.9,030.6,32.9,0000.0,0005.05,0009.39,0004.68
2023-07-22 15:56:00,SystemResetWarning,0836.1,5.00,000.00,029.6,026.5,000.0,037.9,030.6,32.1,0000.0,0005.08,0009.90,0004.69
2023-07-22 15:57:00,SystemResetWarning,0836.1,4.99,000.00,029.6,026.9,000.0,038.0,030.7,31.9,0000.0,0005.11,0010.42,0004.69
2023-07-22 15:58:00,SystemResetWarning,0836.2,5.00,000.00,029.6,027.2,000.0,038.0,030.8,32.7,0000.0,0005.13,0010.50,0004.69
2023-07-22 15:59:00,SystemResetWarning,0836.2,5.00,000.00,029.6,027.4,000.0,038.0,030.9,31.8,0000.0,0005.15,0010.48,0004.69
